Flag for Switzerland Weather past 2 weeks in Versoix, Geneva, Switzerland

Now
76 °F

Passing clouds.


Feels Like: 78 °F
Forecast: 61 / 85 °F
Wind: 3 mph from East

Location: Geneve-Cointrin

Current Time: Aug 30, 2015 at 12:05:08 PM

Latest Report: Aug 30, 2015 at 11:00 AM


Visibility: 37 mi

Pressure: 30.12 "Hg

Humidity: 60%

Dew point: 62 °F

Location of VersoixLocation

Historic Weather in Versoix — Graph

°F

Versoix temperature yesterday

Maximum temperature yesterday: 85 °F (at 4:00 PM)
Minimum temperature yesterday: 62 °F (at 7:00 AM)
Average temperature yesterday: 75 °F

Past Weeks' High & Low Weather Summary

 TemperatureHumidityPressure
High88 °F (Aug 28, 4:00 PM)94% (Aug 24, 5:00 AM)30.25 "Hg (Aug 24, 5:00 AM)
Low49 °F (Aug 20, 7:00 AM)26% (Aug 25, 4:00 PM)29.73 "Hg (Aug 24, 4:00 AM)
Average66 °F66%30.01 "Hg
* Reported Aug 15 10:00 AM — Aug 30 10:00 AM, Versoix, Weather by CustomWeather, © 2015

Note: Actual official high and low records may vary slightly from our data, if they occured in-between our weather recording intervals... More about our weather records

Advertising

Versoix weather history for previous 24 hours

 ConditionsComfort  
Time TempWeatherWind HumidityBarometerVisibility
10:00 AM
Sun, Aug 30
75 °FMild.2 mph59%30.12 "HgN/A
9:00 AM70 °FMild.1 mph74%30.14 "HgN/A
8:00 AM64 °FPassing clouds.1 mph78%30.16 "Hg47 mi
7:00 AM64 °FMild.1 mph78%30.16 "HgN/A
6:00 AM64 °FMild.1 mph81%30.15 "HgN/A
5:00 AM65 °FPassing clouds.2 mph79%30.15 "Hg25 mi
4:00 AM66 °FMild.1 mph78%30.15 "HgN/A
3:00 AM67 °FMild.1 mph76%30.14 "HgN/A
2:00 AM67 °FPassing clouds.2 mph76%30.14 "Hg25 mi
1:00 AM69 °FMild.1 mph73%30.13 "HgN/A
12:00 AM72 °FMild.1 mph66%30.13 "HgN/A
10:00 PM
Sat, Aug 29
79 °FWarm.8 mph50%30.09 "HgN/A
9:00 PM80 °FWarm.8 mph52%30.07 "HgN/A
8:00 PM81 °FPassing clouds.6 mph53%30.06 "Hg37 mi
7:00 PM83 °FWarm.5 mph52%30.04 "HgN/A
6:00 PM84 °FWarm.5 mph50%30.04 "HgN/A
5:00 PM85 °FPassing clouds.6 mph46%30.05 "Hg37 mi
4:00 PM85 °FWarm.7 mph47%30.06 "HgN/A
3:00 PM83 °FWarm.3 mph47%30.09 "HgN/A
2:00 PM81 °FScattered clouds.6 mph51%30.11 "Hg31 mi
1:00 PM80 °FWarm.5 mph52%30.14 "HgN/A
12:00 PM78 °FWarm.3 mph54%30.16 "HgN/A
Weather by CustomWeather, © 2015

See weather overviewHow to use our weather pages